Location: Seoul
(37.5670°N, 127.0000°E)
Time: 09:53:27
(UTC+09:00)

Hubble Space Telescope - Visible Passes

Search period start: 21 June 2024 00:00
Search period end: 01 July 2024 00:00
Orbit: 510 x 514 km, 28.5° (Epoch: 20 June)

Date Brightness Start Highest point End Pass type
(mag) Time Alt. Az. Time Alt. Az. Time Alt. Az.
28 Jun 3.0 03:46:50 10° S 03:47:26 11° SSE 03:48:22 10° SSE visible
29 Jun 3.0 03:28:35 12° SSE 03:28:35 12° SSE 03:29:42 10° SE visible
30 Jun 3.1 03:10:20 11° SE 03:10:20 11° SE 03:10:49 10° SE visible
